W7KKE-3 Weather Reports


Display with metric or nautical units.
time (UTC)temp
F
wind
direction
speed
MPH
gust
MPH
rain 1hr
in
rain 24hr
in
rain mn
in
humidity
%
barometer
mb
20150418131023 44 0 0.0 0.0 0.00 0.00 0.00 93 1027.3
20150418130524 45 0 0.0 0.0 0.00 0.00 0.00 93 1027.2
20150418130023 44 0 0.0 0.0 0.00 0.00 0.00 93 1027.1
20150418125523 44 0 0.0 5.0 0.00 0.00 0.00 93 1026.9
20150418125023 45 61 0.0 5.0 0.00 0.00 0.00 93 1026.9
20150418124523 45 85 1.0 5.0 0.00 0.00 0.00 93 1026.9
20150418124023 45 106 3.0 12.0 0.00 0.00 0.00 93 1026.9
20150418123523 45 345 3.0 12.0 0.00 0.00 0.00 93 1026.9
20150418123023 45 327 0.0 12.0 0.00 0.00 0.00 93 1026.8
20150418122523 45 315 0.0 8.0 0.00 0.00 0.00 93 1026.9
20150418122023 45 0 0.0 0.0 0.00 0.00 0.00 93 1026.8
20150418121523 45 0 0.0 0.0 0.00 0.00 0.00 93 1026.8
20150418121023 45 0 0.0 0.0 0.00 0.00 0.00 93 1026.8
20150418120523 45 0 0.0 0.0 0.00 0.00 0.00 93 1026.7
20150418120024 45 0 0.0 0.0 0.00 0.00 0.00 92 1026.7
20150418115523 45 0 0.0 0.0 0.00 0.00 0.00 92 1026.6
20150418115023 46 0 0.0 0.0 0.00 0.00 0.00 92 1026.6
20150418114523 46 0 0.0 0.0 0.00 0.00 0.00 92 1026.6
20150418114023 46 0 0.0 0.0 0.00 0.00 0.00 92 1026.5
20150418113523 46 0 0.0 0.0 0.00 0.00 0.00 92 1026.5
20150418113023 46 0 0.0 0.0 0.00 0.00 0.00 92 1026.5
20150418112523 46 0 0.0 0.0 0.00 0.00 0.00 92 1026.5
20150418112023 46 0 0.0 0.0 0.00 0.00 0.00 92 1026.5
20150418111523 46 0 0.0 0.0 0.00 0.00 0.00 92 1026.4
20150418111023 46 0 0.0 0.0 0.00 0.00 0.00 92 1026.5
20150418110523 46 0 0.0 0.0 0.00 0.00 0.00 92 1026.5
20150418110023 46 0 0.0 0.0 0.00 0.00 0.00 92 1026.4
20150418105523 46 0 0.0 0.0 0.00 0.00 0.00 91 1026.4
20150418105023 46 0 0.0 0.0 0.00 0.00 0.00 91 1026.4
20150418104524 46 0 0.0 0.0 0.00 0.00 0.00 91 1026.5
20150418104023 46 0 0.0 0.0 0.00 0.00 0.00 91 1026.5
20150418103523 46 0 0.0 0.0 0.00 0.00 0.00 91 1026.5
20150418103023 47 0 0.0 0.0 0.00 0.00 0.00 91 1026.5
20150418102523 47 0 0.0 0.0 0.00 0.00 0.00 90 1026.5
20150418102023 47 0 0.0 0.0 0.00 0.00 0.00 90 1026.4
20150418101523 47 0 0.0 0.0 0.00 0.00 0.00 91 1026.4
20150418101023 48 0 0.0 0.0 0.00 0.00 0.00 91 1026.4
20150418100523 48 0 0.0 0.0 0.00 0.00 0.00 91 1026.4
20150418100023 47 0 0.0 0.0 0.00 0.00 0.00 91 1026.4
20150418095523 47 0 0.0 0.0 0.00 0.00 0.00 90 1026.5
20150418095023 48 0 0.0 0.0 0.00 0.00 0.00 90 1026.4
20150418094523 48 0 0.0 0.0 0.00 0.00 0.00 90 1026.4
20150418094023 48 0 0.0 0.0 0.00 0.00 0.00 90 1026.4
20150418093522 48 0 0.0 0.0 0.00 0.00 0.00 90 1026.5
20150418093023 48 0 0.0 0.0 0.00 0.00 0.00 90 1026.4
20150418092523 48 0 0.0 0.0 0.00 0.00 0.00 90 1026.4
20150418092023 48 0 0.0 0.0 0.00 0.00 0.00 90 1026.4
20150418091523 48 0 0.0 0.0 0.00 0.00 0.00 90 1026.4
20150418091023 48 0 0.0 0.0 0.00 0.00 0.00 89 1026.4
20150418090523 49 0 0.0 0.0 0.00 0.00 0.00 89 1026.4
20150418090022 49 0 0.0 0.0 0.00 0.00 0.00 89 1026.5
20150418085522 49 0 0.0 4.0 0.00 0.00 0.00 89 1026.5
20150418085023 49 0 0.0 4.0 0.00 0.00 0.00 89 1026.5
20150418084522 50 334 0.0 4.0 0.00 0.00 0.00 89 1026.6
20150418084022 50 0 0.0 3.0 0.00 0.00 0.00 89 1026.7
20150418083522 50 357 0.0 3.0 0.00 0.00 0.00 89 1026.8
20150418083022 50 327 0.0 15.0 0.00 0.00 0.00 89 1026.7
20150418082523 50 324 6.0 15.0 0.00 0.00 0.00 89 1026.8
20150418082023 50 298 0.0 15.0 0.00 0.00 0.00 89 1026.8
20150418081524 50 309 3.0 10.0 0.00 0.00 0.00 89 1026.9
20150418081022 50 348 0.0 10.0 0.00 0.00 0.00 89 1027.1
20150418080523 50 329 2.0 6.0 0.00 0.00 0.00 89 1027.1
20150418080022 50 0 0.0 6.0 0.00 0.00 0.00 89 1026.9
20150418075522 50 277 0.0 6.0 0.00 0.00 0.00 88 1026.8
20150418075022 50 278 2.0 6.0 0.00 0.00 0.00 88 1026.8
20150418074522 51 0 0.0 10.0 0.00 0.00 0.00 88 1026.9
20150418074022 51 0 0.0 10.0 0.00 0.00 0.00 88 1026.8
20150418073522 51 319 0.0 10.0 0.00 0.00 0.00 88 1026.9
20150418073023 51 315 6.0 12.0 0.00 0.00 0.00 88 1026.8
20150418072522 51 350 0.0 12.0 0.00 0.00 0.00 88 1026.8
20150418072023 51 343 4.0 12.0 0.00 0.00 0.00 88 1026.8
20150418071522 51 8 1.0 8.0 0.00 0.00 0.00 88 1026.7
20150418071022 52 15 3.0 8.0 0.00 0.00 0.00 88 1026.7
20150418070523 52 312 3.0 11.0 0.00 0.00 0.00 88 1026.7
20150418070022 52 305 1.0 11.0 0.00 0.00 0.00 88 1026.7
20150418065522 52 310 3.0 11.0 0.00 0.00 0.00 88 1026.8
20150418065022 52 310 0.0 5.0 0.00 0.00 0.00 88 1026.7
20150418064522 52 0 0.0 5.0 0.00 0.00 0.00 88 1026.6
20150418064022 52 64 0.0 5.0 0.00 0.00 0.00 88 1026.6
20150418063522 52 320 1.0 4.0 0.00 0.00 0.00 88 1026.6
20150418063022 52 292 1.0 8.0 0.00 0.00 0.00 88 1026.5
20150418062522 52 357 0.0 8.0 0.00 0.00 0.00 88 1026.5
20150418062022 52 357 2.0 8.0 0.00 0.00 0.00 89 1026.6
20150418061530 52 348 0.0 11.0 0.00 0.00 0.00 89 1026.5
20150418061022 52 313 4.0 11.0 0.00 0.00 0.00 89 1026.5
20150418060522 52 324 5.0 11.0 0.00 0.00 0.00 89 1026.4
20150418060023 52 295 5.0 11.0 0.00 0.00 0.00 89 1026.2
20150418055522 52 58 3.0 11.0 0.00 0.00 0.00 89 1026.2
20150418055023 52 330 1.0 12.0 0.00 0.00 0.00 89 1026.2
20150418054522 52 343 5.0 12.0 0.00 0.00 0.00 89 1026.2
20150418054022 51 355 4.0 12.0 0.00 0.00 0.00 89 1026.1
20150418053522 51 320 0.0 7.0 0.00 0.00 0.00 88 1026.0
20150418053022 51 308 2.0 6.0 0.00 0.00 0.00 88 1025.9
20150418052522 51 343 1.0 10.0 0.00 0.00 0.00 88 1025.8
20150418052022 51 295 0.0 10.0 0.00 0.00 0.00 88 1025.9
20150418051522 51 355 0.0 10.0 0.00 0.00 0.00 87 1025.9
20150418051022 51 0 0.0 0.0 0.00 0.00 0.00 87 1025.9
20150418050523 52 0 0.0 0.0 0.00 0.00 0.00 87 1025.9
20150418050022 52 0 0.0 0.0 0.00 0.00 0.00 87 1025.8
20150418045522 52 0 0.0 0.0 0.00 0.00 0.00 87 1025.8
20150418045022 52 0 0.0 0.0 0.00 0.00 0.00 86 1025.7
20150418044523 52 0 0.0 0.0 0.00 0.00 0.00 86 1025.7
20150418044022 52 0 0.0 0.0 0.00 0.00 0.00 86 1025.6
20150418043522 52 0 0.0 0.0 0.00 0.00 0.00 86 1025.7
20150418043022 53 0 0.0 0.0 0.00 0.00 0.00 86 1025.5
20150418042522 53 0 0.0 0.0 0.00 0.00 0.00 86 1025.5
20150418042022 53 0 0.0 0.0 0.00 0.00 0.00 85 1025.5
20150418041522 53 0 0.0 0.0 0.00 0.00 0.00 85 1025.5
20150418041022 53 0 0.0 0.0 0.00 0.00 0.00 85 1025.5
20150418040523 53 0 0.0 8.0 0.00 0.00 0.00 84 1025.4
20150418040022 54 357 0.0 8.0 0.00 0.00 0.00 84 1025.3
20150418035522 54 302 4.0 8.0 0.00 0.00 0.00 84 1025.5
20150418035022 54 319 6.0 7.0 0.00 0.00 0.00 84 1025.4
20150418034522 54 333 3.0 9.0 0.00 0.00 0.00 84 1025.5
20150418034022 54 320 5.0 9.0 0.00 0.00 0.00 84 1025.4
20150418033523 54 330 5.0 9.0 0.00 0.00 0.00 84 1025.4
20150418033022 55 315 5.0 17.0 0.00 0.00 0.00 84 1025.4
20150418032523 55 357 5.0 17.0 0.00 0.00 0.00 84 1025.4
20150418032022 55 323 7.0 17.0 0.00 0.00 0.00 84 1025.3
20150418031522 55 317 4.0 14.0 0.00 0.00 0.00 84 1025.2
20150418031022 55 312 5.0 14.0 0.00 0.00 0.00 83 1025.1
20150418030522 55 310 8.0 13.0 0.00 0.00 0.00 83 1025.0
20150418030022 55 302 5.0 13.0 0.00 0.00 0.00 83 1025.0
20150418025522 56 303 6.0 14.0 0.00 0.00 0.00 83 1024.9
20150418025022 56 308 6.0 14.0 0.00 0.00 0.00 83 1025.0
20150418024523 56 315 4.0 14.0 0.00 0.00 0.00 83 1024.9
20150418024022 56 334 3.0 14.0 0.00 0.00 0.00 82 1025.0
20150418023522 56 331 4.0 19.0 0.00 0.00 0.00 83 1025.0
20150418023022 56 308 4.0 19.0 0.00 0.00 0.00 82 1025.0
20150418022522 56 338 4.0 19.0 0.00 0.00 0.00 82 1025.0
20150418022022 57 331 5.0 19.0 0.00 0.00 0.00 82 1024.9
20150418021522 57 350 5.0 19.0 0.00 0.00 0.00 82 1024.8
20150418021022 57 302 8.0 19.0 0.00 0.00 0.00 81 1024.8
20150418020522 57 329 4.0 11.0 0.00 0.00 0.00 81 1024.6
20150418020022 57 329 6.0 11.0 0.00 0.00 0.00 81 1024.5
20150418015522 57 329 6.0 11.0 0.00 0.00 0.00 81 1024.6
20150418015022 57 330 7.0 13.0 0.00 0.00 0.00 81 1024.7
20150418014522 57 284 5.0 13.0 0.00 0.00 0.00 81 1024.8
20150418014022 57 298 2.0 13.0 0.00 0.00 0.00 80 1024.8
20150418013522 58 330 0.0 12.0 0.00 0.00 0.00 80 1024.7
20150418013022 58 49 2.0 4.0 0.00 0.00 0.00 80 1024.8
20150418012522 58 302 0.0 14.0 0.00 0.00 0.00 80 1024.7
20150418012022 58 19 2.0 14.0 0.00 0.00 0.00 80 1024.7
20150418011522 58 19 2.0 14.0 0.00 0.00 0.00 79 1024.6
20150418011022 58 284 4.0 16.0 0.00 0.00 0.00 79 1024.6
20150418010522 58 357 4.0 16.0 0.00 0.00 0.00 79 1024.6
20150418010022 58 312 3.0 16.0 0.00 0.00 0.00 79 1024.6
20150418005522 58 301 0.0 16.0 0.00 0.00 0.00 79 1024.7
20150418005022 58 338 3.0 24.0 0.00 0.00 0.00 79 1024.8
20150418004522 58 326 11.0 24.0 0.00 0.00 0.00 79 1024.9
20150418004022 58 313 9.0 24.0 0.00 0.00 0.00 79 1024.9
20150418003522 58 323 9.0 36.0 0.00 0.00 0.00 79 1024.9
20150418003022 58 316 15.0 36.0 0.00 0.00 0.00 79 1024.9
20150418002523 58 327 16.0 36.0 0.00 0.00 0.00 78 1024.7
20150418002022 59 312 22.0 35.0 0.00 0.00 0.00 78 1024.7
20150418001522 59 316 19.0 34.0 0.00 0.00 0.00 78 1024.6
20150418001023 59 309 15.0 34.0 0.00 0.00 0.00 78 1024.7
20150418000522 59 319 17.0 34.0 0.00 0.00 0.00 77 1024.6
20150418000022 59 330 21.0 33.0 0.00 0.00 0.00 77 1024.6
20150417235522 59 310 17.0 33.0 0.00 0.00 0.00 76 1024.5
20150417235022 59 309 19.0 28.0 0.00 0.00 0.00 76 1024.6
20150417234522 59 327 18.0 30.0 0.00 0.00 0.00 76 1024.6
20150417234022 59 322 15.0 30.0 0.00 0.00 0.00 76 1024.7
20150417233522 60 322 16.0 30.0 0.00 0.00 0.00 75 1024.7
20150417233022 60 309 19.0 30.0 0.00 0.00 0.00 75 1024.8
20150417232522 60 309 11.0 30.0 0.00 0.00 0.00 74 1025.0
20150417232022 60 327 14.0 24.0 0.00 0.00 0.00 73 1024.9
20150417231522 60 334 13.0 20.0 0.00 0.00 0.00 73 1025.0
20150417231022 60 330 12.0 19.0 0.00 0.00 0.00 73 1025.0
20150417230522 60 340 11.0 19.0 0.00 0.00 0.00 73 1025.0
20150417230024 61 310 11.0 19.0 0.00 0.00 0.00 74 1025.0
20150417225522 61 282 14.0 26.0 0.00 0.00 0.00 74 1025.0
20150417225022 61 330 12.0 26.0 0.00 0.00 0.00 74 1025.0
20150417224522 60 292 11.0 26.0 0.00 0.00 0.00 75 1025.1
20150417224022 60 341 14.0 25.0 0.00 0.00 0.00 75 1025.2
20150417223522 60 333 12.0 25.0 0.00 0.00 0.00 75 1025.3
20150417223022 60 306 11.0 23.0 0.00 0.00 0.00 75 1025.3
20150417222522 60 315 14.0 23.0 0.00 0.00 0.00 75 1025.4
20150417222022 60 299 16.0 28.0 0.00 0.00 0.00 75 1025.2
20150417221522 60 329 15.0 28.0 0.00 0.00 0.00 75 1025.2
20150417221022 60 309 16.0 28.0 0.00 0.00 0.00 75 1025.3
20150417220522 60 330 20.0 26.0 0.00 0.00 0.00 75 1025.2
20150417220022 60 319 16.0 30.0 0.00 0.00 0.00 75 1025.1
20150417215522 60 340 17.0 30.0 0.00 0.00 0.00 75 1025.1
20150417215023 60 322 16.0 30.0 0.00 0.00 0.00 75 1025.1
20150417214523 61 303 18.0 28.0 0.00 0.00 0.00 75 1025.0
20150417214022 61 316 15.0 27.0 0.00 0.00 0.00 75 1025.1
20150417213522 61 326 13.0 27.0 0.00 0.00 0.00 75 1025.1
20150417213022 61 324 16.0 27.0 0.00 0.00 0.00 75 1025.1
20150417212522 61 306 16.0 26.0 0.00 0.00 0.00 75 1025.1
20150417212022 61 315 13.0 26.0 0.00 0.00 0.00 75 1025.1
20150417211522 61 322 18.0 25.0 0.00 0.00 0.00 74 1025.1
20150417211022 61 327 15.0 22.0 0.00 0.00 0.00 74 1025.1
20150417210522 61 308 14.0 22.0 0.00 0.00 0.00 75 1025.2
20150417210022 61 299 14.0 25.0 0.00 0.00 0.00 74 1025.2
20150417205522 61 309 14.0 25.0 0.00 0.00 0.00 74 1025.2
20150417205022 61 324 13.0 25.0 0.00 0.00 0.00 74 1025.2
20150417204522 61 296 16.0 29.0 0.00 0.00 0.00 74 1025.4
20150417204023 61 329 11.0 29.0 0.00 0.00 0.00 75 1025.4
20150417203522 60 320 12.0 29.0 0.00 0.00 0.00 76 1025.3
20150417203024 60 327 18.0 28.0 0.00 0.00 0.00 75 1025.3
20150417202522 60 309 19.0 27.0 0.00 0.00 0.00 75 1025.3
20150417202022 60 329 16.0 27.0 0.00 0.00 0.00 75 1025.3
20150417201523 60 344 17.0 27.0 0.00 0.00 0.00 75 1025.3
20150417201022 60 317 19.0 31.0 0.00 0.00 0.00 75 1025.4
20150417200522 60 323 17.0 31.0 0.00 0.00 0.00 75 1025.3
20150417200022 60 326 18.0 31.0 0.00 0.00 0.00 75 1025.3
20150417195522 60 316 19.0 28.0 0.00 0.00 0.00 75 1025.2
20150417195022 60 319 17.0 28.0 0.00 0.00 0.00 75 1025.2
20150417194522 60 322 15.0 30.0 0.00 0.00 0.00 75 1025.2
20150417194022 60 310 21.0 30.0 0.00 0.00 0.00 74 1025.2
20150417193522 61 313 18.0 30.0 0.00 0.00 0.00 74 1025.1
20150417193022 61 317 17.0 29.0 0.00 0.00 0.00 73 1025.2
20150417192522 61 315 17.0 29.0 0.00 0.00 0.00 73 1025.2
20150417192022 61 334 19.0 29.0 0.00 0.00 0.00 72 1025.1
20150417191522 62 326 17.0 29.0 0.00 0.00 0.00 72 1025.1
20150417191022 62 337 19.0 25.0 0.00 0.00 0.00 72 1025.1
20150417190522 62 313 15.0 25.0 0.00 0.00 0.00 72 1025.1
20150417190022 62 306 18.0 25.0 0.00 0.00 0.00 70 1025.1
20150417185523 63 317 16.0 23.0 0.00 0.00 0.00 69 1025.1
20150417185022 63 305 15.0 22.0 0.00 0.00 0.00 68 1025.2
20150417184522 64 316 13.0 20.0 0.00 0.00 0.00 66 1025.1
20150417184022 64 303 11.0 22.0 0.00 0.00 0.00 67 1025.1
20150417183522 64 324 12.0 22.0 0.00 0.00 0.00 68 1024.9
20150417183022 64 322 10.0 22.0 0.00 0.00 0.00 69 1024.9
20150417182522 65 317 10.0 18.0 0.00 0.00 0.00 70 1024.9
20150417182022 65 331 11.0 17.0 0.00 0.00 0.00 70 1024.8
20150417181522 65 319 11.0 17.0 0.00 0.00 0.00 69 1024.8
20150417181022 66 312 12.0 17.0 0.00 0.00 0.00 68 1024.7
20150417180522 66 330 9.0 16.0 0.00 0.00 0.00 67 1024.6
20150417180022 66 292 6.0 12.0 0.00 0.00 0.00 68 1024.4
20150417175522 65 313 6.0 12.0 0.00 0.00 0.00 70 1024.3
20150417175022 65 295 6.0 12.0 0.00 0.00 0.00 70 1024.4
20150417174522 64 317 7.0 15.0 0.00 0.00 0.00 71 1024.5
20150417174022 64 320 8.0 15.0 0.00 0.00 0.00 71 1024.5
20150417173523 64 312 10.0 15.0 0.00 0.00 0.00 71 1024.6
20150417173022 64 322 10.0 14.0 0.00 0.00 0.00 71 1024.6
20150417172522 64 315 8.0 13.0 0.00 0.00 0.00 71 1024.5
20150417172022 64 313 7.0 13.0 0.00 0.00 0.00 72 1024.4
20150417171522 64 308 9.0 12.0 0.00 0.00 0.00 71 1024.5
20150417171022 64 303 8.0 9.0 0.00 0.00 0.00 71 1024.4
20150417170522 64 292 3.0 7.0 0.00 0.00 0.00 72 1024.3
20150417170022 63 315 4.0 7.0 0.00 0.00 0.00 74 1024.2
20150417165522 63 301 5.0 7.0 0.00 0.00 0.00 76 1024.3
20150417165023 62 282 0.0 6.0 0.00 0.00 0.00 77 1024.2
20150417164522 61 323 1.0 6.0 0.00 0.00 0.00 79 1024.3
20150417164023 60 295 5.0 7.0 0.00 0.00 0.00 80 1024.3
20150417163522 59 298 3.0 7.0 0.00 0.00 0.00 81 1024.3
20150417163022 58 344 0.0 7.0 0.00 0.00 0.00 82 1024.4
20150417162522 58 344 4.0 7.0 0.00 0.00 0.00 82 1024.4
20150417162022 57 282 3.0 7.0 0.00 0.00 0.00 82 1024.4
20150417161522 57 278 3.0 6.0 0.00 0.00 0.00 83 1024.5
20150417161022 57 109 0.0 6.0 0.00 0.00 0.00 84 1024.4
20150417160523 57 138 0.0 6.0 0.00 0.00 0.00 85 1024.4
20150417160022 56 0 0.0 6.0 0.00 0.00 0.00 86 1024.5
20150417155522 56 285 0.0 6.0 0.00 0.00 0.00 87 1024.5
20150417155022 55 273 2.0 6.0 0.00 0.00 0.00 88 1024.6
20150417154522 54 313 1.0 21.0 0.00 0.00 0.00 88 1024.6
20150417154022 54 302 2.0 21.0 0.00 0.00 0.00 88 1024.7
20150417153522 54 294 10.0 21.0 0.00 0.00 0.00 88 1024.7
20150417153022 54 345 10.0 17.0 0.00 0.00 0.00 88 1024.8
20150417152522 54 316 7.0 17.0 0.00 0.00 0.00 89 1024.8
20150417152022 54 331 10.0 20.0 0.00 0.00 0.00 89 1024.9
20150417151522 54 357 9.0 20.0 0.00 0.00 0.00 89 1024.8
20150417151022 54 333 13.0 20.0 0.00 0.00 0.00 89 1024.9
20150417150522 53 331 1.0 14.0 0.00 0.00 0.00 90 1024.8
20150417150022 53 330 7.0 14.0 0.00 0.00 0.00 90 1024.8
20150417145522 53 333 4.0 8.0 0.00 0.00 0.00 90 1024.8
20150417145022 53 109 1.0 18.0 0.00 0.00 0.00 90 1024.8
20150417144522 53 327 1.0 18.0 0.00 0.00 0.00 91 1024.8
20150417144022 53 317 3.0 18.0 0.00 0.00 0.00 91 1024.7
20150417143522 53 310 5.0 15.0 0.00 0.00 0.00 91 1024.7
20150417143022 53 319 4.0 15.0 0.00 0.00 0.00 91 1024.9
20150417142522 53 330 0.0 15.0 0.00 0.00 0.00 91 1024.7
20150417142022 53 357 7.0 15.0 0.00 0.00 0.00 91 1024.6
20150417141522 53 324 9.0 15.0 0.00 0.00 0.00 91 1024.6
20150417141022 53 350 3.0 15.0 0.00 0.00 0.00 92 1024.6
20150417140522 53 347 8.0 15.0 0.00 0.00 0.00 92 1024.5
20150417140022 53 341 7.0 19.0 0.00 0.00 0.00 92 1024.5
20150417135522 53 317 5.0 19.0 0.00 0.00 0.00 92 1024.5
20150417135022 52 336 8.0 19.0 0.00 0.00 0.00 92 1024.4
20150417134522 52 341 9.0 17.0 0.00 0.00 0.00 93 1024.4
20150417134022 52 319 7.0 16.0 0.00 0.00 0.00 93 1024.4
20150417133522 51 308 10.0 16.0 0.00 0.00 0.00 93 1024.4
20150417133022 51 309 7.0 8.0 0.00 0.00 0.00 93 1024.4
20150417132522 50 282 4.0 6.0 0.00 0.00 0.00 93 1024.4
20150417132022 50 123 0.0 6.0 0.00 0.00 0.00 92 1024.3
20150417131522 50 107 0.0 6.0 0.00 0.00 0.00 92 1024.3